Temperature
20 20 20 20 20 20 20 20 20 20 20 20 20 20 20 20 20 20 20 20 20 20 20 20 20 19 19 19 19 19 19 19 19 19 19 19 19 18 18 18 18 18 18
20 20 20 20 20 20 20 20 20 20 20 20 20 20 20 20 20 19 19 19 20 19 19 19 19 19 19 19 19 19 19 19 19 19 19 19 19 18 19 18 18 18 18
20 20 20 20 20 20 20 20 20 20 20 20 20 20 20 20 19 19 19 19 19 19 19 19 19 19 19 19 19 19 19 19 19 19 19 19 19 19 18 18 18 18 18
20 20 20 20 20 20 20 20 20 20 20 20 20 20 19 19 19 19 19 19 19 19 19 19 19 19 19 19 19 19 19 19 19 19 19 19 19 18 18 18 18 18 18
20 20 20 20 20 19 20 20 20 20 20 20 20 19 19 19 19 19 19 19 19 19 19 19 19 19 19 18 18 18 18 18 18 18 18 19 18 18 18 18 18 18 18
19 19 19 19 19 19 19 19 19 19 19 19 19 19 19 19 19 19 19 19 19 19 19 19 19 19 18 18 18 18 18 18 18 18 18 18 18 18 18 18 18 18 18
19 19 19 19 19 19 19 19 19 19 19 19 19 19 19 19 19 19 19 19 19 19 19 19 19 18 18 18 18 18 18 18 18 18 18 18 18 18 18 18 18 18 18
18 18 18 19 19 19 19 19 19 19 19 19 19 19 19 19 19 19 19 19 19 19 19 18 18 18 18 18 18 18 18 18 18 18 18 18 18 18 18 18 18 18 18
18 18 18 18 18 18 18 18 18 19 19 19 19 19 19 19 19 19 19 19 19 19 19 18 18 18 18 18 18 18 18 18 18 18 18 18 18 18 18 18 18 18 18
18 18 18 18 18 18 18 18 18 18 18 18 18 18 18 18 18 19 19 19 19 18 18 18 18 18 18 18 18 18 18 18 18 18 18 18 18 18 18 18 18 18 18
18 18 17 17 18 18 18 18 18 18 18 18 18 18 18 18 18 18 18 18 18 18 18 18 18 18 18 18 18 18 18 18 18 18 18 18 18 18 18 18 18 18 18
17 17 17 17 17 17 17 17 18 18 18 18 18 18 18 18 18 18 18 18 18 18 18 18 18 18 18 18 18 18 18 18 18 18 18 18 18 18 18 18 18 18 18
17 17 17 17 17 17 17 17 17 17 18 18 18 18 18 18 18 18 18 18 18 18 18 18 18 18 18 18 18 18 18 18 18 18 18 18 18 18 18 18 18 18 18
16 16 16 16 16 16 17 17 17 17 17 17 18 17 18 18 18 18 18 18 18 18 18 18 18 18 18 18 18 18 18 18 18 18 18 18 18 18 18 18 18 17 18
16 16 16 16 16 16 16 16 16 17 17 17 17 17 17 17 18 18 18 18 18 18 18 18 18 18 18 18 18 18 18 18 18 18 18 18 18 18 17 18 18 17 17
15 15 15 15 15 15 15 15 16 16 16 16 17 17 17 17 17 17 18 18 18 18 18 18 18 18 18 18 18 18 18 18 18 18 18 18 18 17 17 17 17 17 17
15 15 15 15 15 15 15 15 15 15 16 16 16 16 16 17 17 17 17 18 18 18 18 18 18 18 18 18 18 18 18 18 18 18 18 18 18 17 17 17 17 17 17
14 14 14 14 14 14 14 14 15 15 15 15 15 16 16 16 17 17 17 17 17 17 17 17 18 17 17 18 18 18 18 18 18 18 18 18 18 18 17 17 17 17 17
14 14 14 14 14 14 14 14 14 14 14 15 15 15 15 16 16 16 16 17 17 17 17 17 17 17 17 17 18 18 18 18 18 18 18 18 18 18 17 17 17 17 17
13 13 13 13 13 13 13 14 14 14 14 14 14 15 15 15 15 16 16 16 16 17 17 17 17 17 17 17 17 17 18 18 18 18 18 18 18 17 17 17 17 17 17
13 13 13 13 13 13 13 13 13 14 14 14 14 14 14 15 15 15 15 16 16 16 16 16 17 17 17 17 17 17 17 17 18 18 18 18 18 17 17 17 17 17 17
13 13 13 13 13 13 13 13 13 13 13 13 13 14 14 14 14 15 15 15 15 16 16 16 16 16 16 16 16 16 16 17 17 18 18 18 17 17 17 17 17 17 17
13 13 12 12 12 12 12 12 12 13 13 13 13 13 14 14 14 14 14 15 15 15 15 16 16 16 16 16 16 16 16 17 17 17 17 17 17 17 17 17 17 17 17
12 12 12 12 12 12 12 12 12 12 12 12 12 13 13 13 13 14 14 14 15 15 15 15 15 16 16 16 16 16 16 16 17 17 17 17 17 17 17 17 17 17 17
12 12 12 12 12 12 12 12 12 12 12 12 12 12 13 13 13 13 14 14 14 14 15 15 15 15 15 15 15 16 16 16 16 16 17 17 17 17 17 17 17 17 17
12 12 12 12 12 12 12 12 12 12 12 12 12 12 13 13 13 13 13 14 14 14 14 15 15 15 15 15 15 15 16 15 16 16 16 17 17 17 17 17 17 17 17
Wind_Speed
4 6 9 10 10 10 10 10 10 10 10 10 10 10 9 9 9 8 8 7 6 5 5 5 5 5 5 6 6 6 6 6 7 6 7 6 6 6 7 7 7 7 8
5 8 10 10 10 10 9 9 9 9 9 9 9 9 8 8 8 7 6 6 5 5 5 5 4 4 4 4 5 5 5 5 6 6 6 6 6 6 6 7 7 7 8
5 8 10 10 10 10 9 9 9 9 9 8 8 8 8 7 7 6 6 5 5 5 4 4 4 3 3 4 4 4 4 4 4 5 5 4 4 5 6 6 7 7 8
6 7 9 10 10 9 9 9 8 8 8 8 8 8 7 7 6 6 6 5 4 4 4 3 3 2 2 2 3 3 4 4 4 4 4 3 3 4 5 6 6 7 7
5 6 8 10 9 9 9 8 8 8 8 8 8 8 7 7 6 6 5 5 4 4 4 3 3 2 1 1 2 2 3 3 4 4 4 3 2 3 5 5 6 7 7
2 4 6 8 9 9 9 9 8 8 8 8 8 8 7 7 7 7 6 6 5 5 4 4 3 3 2 1 1 2 2 3 4 4 3 2 2 3 5 5 6 6 6
1 1 2 5 6 7 8 9 9 9 9 9 9 9 8 8 8 7 7 7 6 6 5 5 4 4 3 1 0 1 1 2 3 2 2 2 2 3 4 5 6 6 6
3 2 2 3 5 6 7 8 9 9 10 10 10 10 10 10 9 9 8 8 7 7 6 5 5 5 4 3 1 1 1 1 2 1 2 2 3 4 4 5 6 6 6
6 4 5 5 4 5 6 7 9 9 10 11 11 11 11 11 10 10 9 9 9 8 8 7 6 6 5 4 3 2 1 0 1 1 2 3 3 4 4 5 5 6 6
7 6 7 8 8 7 7 8 8 9 10 11 12 12 12 11 11 11 10 10 10 10 9 9 8 7 6 5 4 3 2 0 1 2 2 3 5 5 4 5 6 6 6
9 7 7 7 8 9 8 8 9 10 10 10 11 12 12 11 10 10 11 11 11 11 11 10 9 8 7 5 4 3 1 1 2 3 4 4 5 6 5 5 6 6 7
8 7 6 6 7 8 8 8 8 8 8 9 8 9 10 10 10 10 11 12 12 12 12 12 11 9 7 4 3 3 2 2 3 4 5 5 6 6 6 6 6 6 7
5 6 6 5 6 7 6 7 6 7 7 7 8 8 8 8 8 9 8 9 10 11 9 9 8 7 5 4 4 3 4 4 5 5 5 6 6 6 6 6 6 6 7
6 7 7 6 6 7 7 6 5 5 5 5 7 7 6 4 5 6 6 7 8 7 6 6 5 6 6 6 5 5 5 5 6 6 7 7 7 7 7 7 6 6 7
7 8 8 7 6 6 5 5 5 4 5 7 7 7 6 4 5 4 5 6 7 7 6 5 5 5 5 5 6 6 6 7 7 7 7 8 8 8 7 7 7 7 8
7 8 8 7 6 6 5 5 4 6 7 7 7 8 7 6 4 4 5 4 5 7 7 6 5 4 4 4 5 6 6 7 8 9 8 8 9 9 8 8 8 8 8
7 7 8 8 6 7 7 6 6 7 7 5 6 8 8 7 6 5 5 5 5 7 7 5 4 4 3 4 4 5 5 6 7 8 9 8 8 9 9 9 9 9 9
7 8 8 8 8 8 7 6 6 7 6 6 7 8 8 8 7 5 5 5 5 6 4 4 3 3 4 3 3 3 3 4 6 7 8 8 8 7 9 9 9 9 9
7 7 8 8 8 8 8 7 6 6 5 6 6 6 7 8 7 5 5 4 5 4 4 5 4 4 4 3 3 2 2 3 4 5 6 8 8 8 8 9 9 9 10
7 7 8 8 8 8 7 6 5 5 4 5 5 5 7 7 7 5 4 4 4 4 5 5 4 4 3 3 2 1 0 1 2 3 5 5 7 8 8 7 8 9 9
8 8 8 9 9 7 5 5 5 5 5 5 4 6 6 6 6 4 4 4 5 5 6 6 5 4 3 3 3 1 1 1 1 2 2 3 5 7 7 8 8 8 8
8 9 8 9 9 8 6 5 4 5 5 5 5 5 6 5 5 4 4 4 5 5 6 7 5 4 4 5 4 3 1 1 1 1 2 3 4 4 5 7 8 9 8
9 9 9 9 9 9 8 6 5 4 4 4 4 5 4 6 5 4 4 4 4 5 6 7 7 7 5 4 4 4 4 5 2 1 2 3 3 4 4 5 8 9 9
9 9 9 9 9 9 8 6 6 5 5 5 5 5 6 5 5 4 4 4 4 4 5 6 7 6 6 5 3 3 2 3 4 2 0 1 3 4 4 5 6 8 9
8 8 8 9 8 9 8 7 7 6 5 6 6 6 6 5 4 4 4 4 4 4 5 5 5 6 6 6 5 4 3 2 2 3 3 2 1 2 3 4 4 6 9
8 8 8 9 9 8 8 8 7 8 8 8 8 7 6 5 4 4 3 3 4 4 4 5 5 6 7 7 6 5 4 4 4 4 3 3 2 1 2 2 3 4 7
Wind_Direction
195 192 177 165 163 161 157 154 150 147 145 143 143 143 143 142 141 140 140 137 135 130 124 118 112 106 97 90 83 80 78 78 81 82 85 86 89 98 106 108 109 107 112
165 174 172 167 166 168 165 162 158 156 154 153 152 152 150 149 147 147 146 144 142 137 132 127 124 116 106 96 86 79 76 78 82 83 83 79 86 101 107 116 117 118 116
147 164 170 170 170 171 171 171 169 166 164 163 162 161 161 161 161 161 159 157 155 151 145 140 135 127 112 95 83 74 69 73 83 88 84 73 84 100 110 121 123 123 122
152 160 170 176 175 176 177 179 179 177 175 174 173 173 172 172 173 173 171 170 171 170 166 158 155 141 120 94 77 68 63 66 81 92 93 80 79 103 116 124 126 127 127
149 162 179 184 183 183 185 187 187 187 186 186 186 186 186 187 186 184 185 187 187 186 184 182 178 169 145 104 66 55 54 65 79 89 100 95 81 109 121 123 128 127 130
139 168 195 192 193 194 195 196 196 197 197 199 198 198 199 198 197 199 201 203 204 203 201 203 205 206 203 174 46 38 48 62 82 95 110 121 115 123 122 124 130 130 131
104 175 225 210 210 211 211 211 209 208 208 209 210 209 208 210 209 210 212 215 216 215 215 217 222 222 227 235 291 2 24 59 99 116 131 155 161 144 131 127 130 129 130
59 36 341 273 248 241 235 231 229 226 222 220 220 220 218 218 219 219 220 222 223 225 225 225 230 232 235 245 262 278 35 47 100 131 164 188 188 157 138 133 128 125 126
40 28 357 342 316 288 270 258 249 246 241 236 232 230 228 227 227 227 228 228 230 231 231 232 235 240 245 251 257 262 242 63 123 196 206 206 203 175 154 142 132 126 122
32 23 8 352 346 332 313 293 283 274 263 255 248 243 238 235 233 234 235 236 237 237 235 236 237 240 243 249 255 258 237 190 213 236 229 223 211 192 170 148 135 127 124
24 15 8 356 352 342 323 313 306 295 283 273 262 256 252 243 239 239 240 241 243 243 241 239 238 240 242 247 253 260 254 231 252 255 236 230 217 202 184 162 149 141 136
7 0 1 352 346 337 327 324 317 303 292 283 272 264 256 246 240 239 240 245 248 248 248 244 240 240 241 235 251 264 246 245 250 257 243 236 223 208 190 175 162 153 147
350 350 348 339 340 339 332 327 324 315 306 292 281 269 260 251 244 239 234 243 250 251 248 246 242 231 218 216 225 236 241 243 240 250 247 239 226 212 197 184 171 163 154
353 346 342 342 339 338 335 324 318 317 313 306 294 280 265 252 240 231 226 227 230 236 234 226 219 217 215 220 224 231 239 237 233 239 245 245 233 218 206 192 183 173 162
351 342 337 335 339 334 331 322 324 311 304 300 296 285 264 251 249 241 234 227 223 224 223 218 211 212 217 220 225 226 229 232 232 231 238 243 237 223 211 198 188 181 169
343 336 331 330 334 335 325 313 306 307 304 301 296 287 274 251 245 242 240 230 225 222 220 215 210 208 212 210 223 224 226 225 228 226 230 237 233 223 215 205 195 188 178
331 330 329 328 339 333 323 313 314 304 302 295 291 289 280 264 251 242 236 232 226 221 216 213 209 199 208 212 226 230 225 222 220 218 218 221 223 218 215 210 201 192 185
332 330 328 335 333 327 320 309 306 303 299 294 293 290 284 274 258 244 237 235 222 210 202 202 192 194 206 201 213 230 229 218 218 213 207 207 205 207 213 214 205 197 192
331 327 326 327 328 325 320 311 303 299 295 295 296 291 287 281 267 245 237 237 222 210 205 208 194 190 196 200 208 216 223 223 213 204 197 198 196 196 202 212 210 203 197
330 327 325 327 328 325 320 316 311 306 301 298 297 293 292 285 276 256 240 234 219 212 211 207 195 182 184 186 203 203 248 250 203 199 200 191 192 194 198 203 206 207 203
333 332 330 331 329 332 329 327 320 316 311 305 294 297 297 291 282 263 252 237 221 218 214 205 195 185 189 160 134 98 7 355 204 205 193 184 190 193 192 198 200 197 199
326 327 329 331 329 331 325 311 290 289 291 286 288 297 296 294 287 274 252 241 227 221 217 207 194 182 188 173 154 136 178 304 286 218 187 196 197 183 190 198 196 195 194
327 326 329 327 328 328 327 321 317 311 304 309 312 309 300 297 285 272 252 242 231 222 220 212 200 191 190 187 175 158 167 201 210 251 213 200 186 186 194 189 194 195 193
320 323 326 329 330 331 334 336 335 328 318 307 305 300 302 296 290 277 258 243 235 227 224 218 205 196 184 185 190 191 165 156 160 176 257 211 195 197 196 193 192 193 193
317 324 330 333 334 337 341 341 337 330 315 312 313 313 314 310 299 290 268 251 244 231 223 217 207 201 194 189 182 174 158 137 145 156 179 189 198 213 198 194 187 190 192
320 328 335 338 335 338 341 342 344 337 330 328 329 327 324 317 310 307 290 262 251 238 225 216 214 208 202 196 191 181 170 167 176 164 163 168 185 213 198 190 192 194 196
Height
1541 1542 1544 1546 1547 1548 1549 1550 1551 1552 1553 1553 1554 1554 1554 1554 1555 1555 1555 1555 1555 1556 1556 1555 1555 1555 1555 1555 1555 1554 1554 1554 1554 1553 1553 1553 1552 1552 1552 1552 1552 1552 1553
1542 1543 1545 1546 1547 1549 1550 1551 1551 1552 1553 1553 1553 1554 1554 1554 1555 1555 1555 1555 1555 1556 1556 1556 1556 1556 1555 1555 1555 1555 1555 1555 1554 1554 1553 1553 1553 1553 1553 1553 1553 1553 1554
1543 1544 1545 1547 1548 1549 1550 1551 1552 1552 1552 1553 1553 1554 1554 1554 1554 1554 1555 1555 1555 1555 1555 1555 1556 1556 1555 1555 1555 1555 1555 1555 1555 1554 1554 1554 1554 1553 1553 1553 1554 1554 1554
1544 1545 1546 1547 1548 1549 1550 1551 1552 1552 1552 1553 1553 1553 1553 1554 1554 1554 1554 1554 1554 1555 1555 1555 1555 1555 1555 1555 1555 1555 1556 1555 1555 1555 1555 1554 1554 1554 1554 1554 1554 1554 1554
1545 1546 1547 1548 1549 1550 1550 1551 1551 1552 1552 1552 1553 1553 1553 1553 1553 1553 1553 1554 1554 1554 1554 1554 1555 1555 1555 1555 1555 1555 1555 1555 1555 1555 1555 1554 1554 1554 1554 1554 1554 1554 1555
1546 1547 1548 1549 1549 1550 1550 1551 1551 1551 1552 1552 1552 1552 1552 1552 1552 1552 1552 1553 1553 1553 1553 1553 1554 1554 1555 1555 1555 1555 1555 1555 1555 1555 1555 1555 1554 1554 1554 1554 1554 1555 1555
1547 1548 1549 1549 1549 1550 1550 1550 1550 1550 1551 1551 1551 1551 1551 1551 1551 1551 1551 1552 1552 1552 1552 1553 1553 1553 1554 1554 1554 1555 1555 1555 1555 1555 1555 1555 1555 1554 1554 1555 1555 1555 1555
1548 1549 1549 1549 1549 1549 1549 1549 1549 1549 1550 1549 1549 1550 1550 1550 1550 1550 1550 1550 1551 1551 1551 1552 1552 1552 1553 1553 1553 1554 1554 1555 1555 1555 1555 1555 1555 1555 1555 1555 1555 1555 1556
1548 1548 1548 1548 1548 1548 1548 1548 1548 1548 1548 1548 1548 1548 1548 1548 1548 1548 1549 1549 1549 1549 1550 1550 1551 1551 1552 1552 1552 1553 1553 1554 1555 1555 1555 1555 1555 1555 1555 1555 1555 1556 1556
1548 1548 1548 1547 1547 1547 1546 1546 1546 1546 1546 1546 1546 1546 1546 1546 1546 1546 1547 1547 1547 1548 1548 1549 1549 1550 1550 1551 1551 1552 1552 1553 1554 1555 1555 1555 1555 1554 1555 1555 1555 1556 1556
1548 1548 1547 1546 1545 1544 1544 1543 1543 1543 1543 1543 1543 1544 1544 1544 1544 1544 1545 1545 1546 1546 1546 1547 1548 1548 1549 1549 1550 1550 1551 1552 1553 1554 1555 1555 1554 1554 1555 1555 1555 1556 1556
1548 1547 1546 1545 1544 1542 1542 1541 1541 1540 1540 1540 1541 1541 1541 1541 1542 1542 1542 1543 1543 1544 1544 1545 1546 1546 1547 1548 1548 1549 1550 1551 1552 1553 1554 1554 1554 1554 1554 1555 1555 1556 1557
1548 1546 1545 1543 1542 1540 1539 1539 1538 1537 1537 1537 1537 1538 1538 1538 1538 1539 1540 1540 1541 1541 1542 1543 1544 1544 1545 1546 1547 1548 1549 1550 1551 1552 1553 1553 1554 1554 1554 1555 1555 1556 1557
1547 1546 1544 1542 1540 1538 1537 1535 1534 1534 1533 1533 1533 1534 1534 1534 1535 1535 1536 1537 1538 1539 1539 1540 1541 1542 1543 1544 1545 1546 1547 1549 1550 1551 1552 1553 1553 1553 1554 1554 1555 1556 1557
1546 1544 1542 1539 1537 1535 1534 1532 1531 1530 1529 1529 1529 1529 1529 1530 1530 1532 1532 1533 1534 1536 1536 1537 1538 1539 1541 1542 1543 1545 1546 1547 1549 1550 1551 1552 1552 1552 1553 1554 1554 1555 1557
1545 1542 1540 1537 1535 1532 1530 1529 1527 1526 1525 1525 1525 1525 1525 1525 1526 1527 1528 1529 1530 1532 1533 1534 1535 1537 1538 1540 1541 1543 1544 1546 1547 1549 1550 1551 1551 1552 1552 1553 1554 1555 1556
1544 1541 1538 1535 1532 1530 1527 1525 1524 1522 1521 1520 1520 1520 1520 1521 1521 1522 1523 1524 1526 1527 1529 1530 1532 1533 1535 1537 1539 1540 1542 1544 1545 1547 1548 1549 1550 1551 1551 1552 1553 1554 1555
1542 1539 1536 1533 1530 1527 1524 1522 1520 1518 1517 1516 1515 1515 1515 1516 1517 1517 1518 1519 1521 1523 1524 1526 1528 1530 1532 1534 1536 1538 1539 1541 1543 1545 1546 1547 1549 1549 1550 1551 1552 1553 1554
1541 1537 1534 1530 1527 1524 1521 1519 1516 1514 1513 1512 1511 1511 1511 1511 1512 1512 1513 1515 1516 1518 1520 1521 1523 1525 1528 1530 1532 1534 1536 1538 1540 1542 1544 1545 1547 1548 1549 1550 1551 1552 1553
1539 1536 1532 1528 1525 1521 1518 1516 1513 1511 1509 1508 1507 1506 1506 1506 1507 1507 1508 1510 1511 1513 1515 1517 1519 1521 1524 1526 1529 1531 1533 1535 1537 1539 1541 1543 1545 1546 1547 1549 1550 1551 1552
1538 1534 1530 1526 1522 1519 1516 1512 1510 1507 1506 1504 1503 1502 1502 1502 1502 1502 1504 1505 1507 1508 1510 1512 1514 1517 1519 1522 1525 1527 1529 1531 1533 1536 1538 1540 1542 1544 1545 1547 1548 1550 1551
1536 1533 1529 1525 1521 1518 1514 1511 1508 1505 1503 1501 1499 1499 1498 1497 1497 1498 1499 1500 1502 1503 1505 1507 1509 1512 1515 1517 1520 1523 1525 1528 1529 1532 1534 1537 1539 1541 1543 1545 1546 1548 1549
1535 1532 1528 1524 1520 1517 1513 1510 1506 1503 1501 1498 1496 1495 1494 1494 1494 1494 1495 1496 1497 1498 1500 1502 1505 1507 1510 1513 1515 1519 1521 1523 1525 1528 1530 1533 1536 1538 1540 1542 1544 1546 1547
1535 1531 1528 1524 1520 1516 1512 1509 1505 1502 1498 1496 1494 1492 1491 1490 1490 1490 1491 1492 1493 1494 1496 1498 1500 1502 1505 1507 1511 1514 1517 1519 1521 1523 1526 1528 1531 1534 1536 1539 1541 1543 1545
1535 1531 1527 1524 1520 1516 1512 1508 1504 1501 1498 1495 1492 1490 1489 1488 1487 1487 1487 1488 1488 1489 1491 1493 1495 1498 1500 1502 1506 1509 1512 1515 1517 1519 1521 1524 1527 1530 1533 1535 1538 1540 1542
1534 1531 1527 1523 1519 1516 1512 1508 1504 1500 1497 1494 1491 1489 1487 1485 1485 1484 1484 1484 1485 1486 1487 1489 1491 1493 1495 1498 1501 1504 1507 1510 1512 1515 1517 1520 1523 1526 1529 1531 1534 1537 1539